• Join FlightAware (Why Join?)
  • Login
  • US Flag 
03:44AM EST


 

Airport Tracker/Info


-or-


 

Live Flight TrackerFlight Track Log ✈ ELO3908 ✈ 01-Oct-2013 ✈ EPKK / KRK - EPWA / WAW

Flight Track Log - Related Links

Times and Time Zones

All times are in EDT time to prevent confusion due to time zone crossing. See the ELO3908 flight status page for this flight to view local times or setup timezone preferences in your user account.

Time Position Orientation Groundspeed Altitude Reporting Facility
EDT Latitude Longitude Course Direction KTS MPH feet Rate Location/Type
10:36AM 51.1214 20.3616 19° North  Level Estimated
10:37AM 51.1959 20.4038 20° North  Level Estimated
10:38AM 51.2703 20.4461 20° North  Level Estimated
10:39AM 51.3447 20.4886 20° North  Level Estimated
10:40AM 51.4191 20.5312 20° North  Level Estimated
10:41AM 51.4935 20.5739 20° North  Level Estimated
10:42AM 51.5678 20.6168 20° North  Level Estimated
10:43AM 51.6422 20.6598 20° North  Level Estimated
10:44AM 51.7165 20.7030 20° North  Level Estimated
10:45AM 51.7908 20.7463 20° North  Level Estimated
10:46AM 51.8651 20.7897 20° North  Level Estimated
10:47AM 51.9394 20.8333 20° North  Level Estimated
10:48AM 52.0136 20.8771 20° North  Level Estimated
10:49AM 52.0879 20.9209 20° North  Level Estimated
10:50AM 52.1621 20.9650 20° North  Level Estimated
10:51AM 52.1657 20.9671 20° North  Level Estimated
10:52AM 52.1657 20.9671 90° East  Level Estimated
10:53AM 52.1657 20.9671 90° East  Level Estimated
10:54AM 52.1657 20.9671 90° East  Level Estimated
10:55AM 52.1657 20.9671 90° East  Level Estimated
10:56AM 52.1657 20.9671 90° East  Level Estimated
10:57AM 52.1657 20.9671 90° East  Level Estimated
10:58AM 52.1657 20.9671 90° East  Level Estimated
10:59AM 52.1657 20.9671 90° East  Level Estimated
11:00AM 52.1657 20.9671 90° East  Level Estimated
11:01AM 52.1657 20.9671 90° East  Level Estimated
11:02AM 52.1657 20.9671 90° East  Level Estimated